Time,TemperatureF,DewpointF,PressureIn,WindDirection,WindDirectionDegrees,WindSpeedMPH,WindSpeedGustMPH,Humidity,HourlyPrecipIn,Conditions,Clouds,dailyrainin,SoftwareType,DateUTC
2013-07-10 00:01:00,79.2,73.3,30.13,WSW,243,8.0,11.0,82,0.00,,,0.00,WUHU216DAVISVP2,2013-07-10 04:01:00,
2013-07-10 00:06:00,79.2,73.3,30.13,SW,227,6.0,10.0,82,0.00,,,0.00,WUHU216DAVISVP2,2013-07-10 04:06:00,
2013-07-10 00:11:00,79.2,73.3,30.13,SW,226,4.0,10.0,82,0.00,,,0.00,WUHU216DAVISVP2,2013-07-10 04:11:00,
2013-07-10 00:16:00,79.2,73.3,30.13,SW,220,7.0,8.0,82,0.00,,,0.00,WUHU216DAVISVP2,2013-07-10 04:16:00,
2013-07-10 00:21:00,79.2,73.3,30.12,West,259,3.0,8.0,82,0.00,,,0.00,WUHU216DAVISVP2,2013-07-10 04:21:00,
2013-07-10 00:26:00,79.2,73.7,30.12,SW,219,4.0,8.0,83,0.00,,,0.00,WUHU216DAVISVP2,2013-07-10 04:26:00,
2013-07-10 00:31:00,79.1,73.6,30.12,WSW,245,5.0,8.0,83,0.00,,,0.00,WUHU216DAVISVP2,2013-07-10 04:31:00,
2013-07-10 00:36:00,79.1,73.5,30.12,SW,233,3.0,9.0,83,0.00,,,0.00,WUHU216DAVISVP2,2013-07-10 04:36:00,
2013-07-10 00:41:00,79.0,73.4,30.12,SW,226,5.0,9.0,83,0.00,,,0.00,WUHU216DAVISVP2,2013-07-10 04:41:00,
2013-07-10 00:46:00,79.0,73.4,30.12,WSW,244,3.0,11.0,83,0.00,,,0.00,WUHU216DAVISVP2,2013-07-10 04:46:00,
2013-07-10 00:51:00,79.0,73.5,30.11,WSW,244,3.0,11.0,83,0.00,,,0.00,WUHU216DAVISVP2,2013-07-10 04:51:00,
2013-07-10 00:56:00,79.0,73.4,30.11,South,191,4.0,11.0,83,0.00,,,0.00,WUHU216DAVISVP2,2013-07-10 04:56:00,
2013-07-10 01:01:00,79.0,73.5,30.11,SW,224,6.0,11.0,83,0.00,,,0.00,WUHU216DAVISVP2,2013-07-10 05:01:00,
2013-07-10 01:06:00,79.0,73.5,30.11,SSW,207,5.0,9.0,83,0.00,,,0.00,WUHU216DAVISVP2,2013-07-10 05:06:00,
2013-07-10 01:11:00,78.9,73.4,30.11,South,177,3.0,9.0,83,0.00,,,0.00,WUHU216DAVISVP2,2013-07-10 05:11:00,
2013-07-10 01:16:00,78.9,73.4,30.11,SSW,212,3.0,9.0,83,0.00,,,0.00,WUHU216DAVISVP2,2013-07-10 05:16:00,
2013-07-10 01:21:00,78.9,73.4,30.11,SSW,212,5.0,9.0,83,0.00,,,0.00,WUHU216DAVISVP2,2013-07-10 05:21:00,
2013-07-10 01:27:00,78.8,73.6,30.11,West,266,5.0,9.0,84,0.00,,,0.00,WUHU216DAVISVP2,2013-07-10 05:27:00,
2013-07-10 01:32:00,78.7,73.5,30.11,WSW,245,3.0,9.0,84,0.00,,,0.00,WUHU216DAVISVP2,2013-07-10 05:32:00,
2013-07-10 01:37:00,78.7,73.5,30.11,WSW,239,5.0,7.0,84,0.00,,,0.00,WUHU216DAVISVP2,2013-07-10 05:37:00,
2013-07-10 01:42:00,78.6,73.4,30.11,South,172,2.0,7.0,84,0.00,,,0.00,WUHU216DAVISVP2,2013-07-10 05:42:00,
2013-07-10 01:47:00,78.6,73.4,30.11,SSW,212,4.0,7.0,84,0.00,,,0.00,WUHU216DAVISVP2,2013-07-10 05:47:00,
2013-07-10 01:52:00,78.6,73.4,30.10,West,267,4.0,7.0,84,0.00,,,0.00,WUHU216DAVISVP2,2013-07-10 05:52:00,
2013-07-10 01:57:00,78.6,73.4,30.10,SW,221,5.0,7.0,84,0.00,,,0.00,WUHU216DAVISVP2,2013-07-10 05:57:00,
2013-07-10 02:02:00,78.5,73.0,30.10,SSW,197,6.0,7.0,83,0.00,,,0.00,WUHU216DAVISVP2,2013-07-10 06:02:00,
2013-07-10 02:07:00,78.5,73.0,30.10,SW,236,5.0,9.0,83,0.00,,,0.00,WUHU216DAVISVP2,2013-07-10 06:07:00,
2013-07-10 02:12:00,78.5,73.0,30.09,SSW,210,4.0,10.0,83,0.00,,,0.00,WUHU216DAVISVP2,2013-07-10 06:12:00,
2013-07-10 02:17:00,78.5,73.0,30.09,WSW,245,2.0,10.0,83,0.00,,,0.00,WUHU216DAVISVP2,2013-07-10 06:17:00,
2013-07-10 02:22:00,78.5,73.0,30.09,SW,233,6.0,10.0,83,0.00,,,0.00,WUHU216DAVISVP2,2013-07-10 06:22:00,
2013-07-10 02:27:00,78.5,73.0,30.09,WSW,248,8.0,10.0,83,0.00,,,0.00,WUHU216DAVISVP2,2013-07-10 06:27:00,
2013-07-10 02:32:00,78.4,72.9,30.09,SSW,195,4.0,10.0,83,0.00,,,0.00,WUHU216DAVISVP2,2013-07-10 06:32:00,
2013-07-10 02:37:00,78.5,72.6,30.09,SW,220,5.0,10.0,82,0.00,,,0.00,WUHU216DAVISVP2,2013-07-10 06:37:00,
2013-07-10 02:42:00,78.5,73.0,30.09,SW,227,6.0,10.0,83,0.00,,,0.00,WUHU216DAVISVP2,2013-07-10 06:42:00,
2013-07-10 02:47:00,78.4,72.8,30.09,SW,236,4.0,10.0,83,0.00,,,0.00,WUHU216DAVISVP2,2013-07-10 06:47:00,
2013-07-10 02:52:00,78.4,72.4,30.08,SW,236,4.0,10.0,82,0.00,,,0.00,WUHU216DAVISVP2,2013-07-10 06:52:00,
2013-07-10 02:57:00,78.4,72.4,30.08,WSW,239,3.0,9.0,82,0.00,,,0.00,WUHU216DAVISVP2,2013-07-10 06:57:00,
2013-07-10 03:02:00,78.4,72.1,30.08,WSW,252,4.0,9.0,81,0.00,,,0.00,WUHU216DAVISVP2,2013-07-10 07:02:00,
2013-07-10 03:07:00,78.3,72.0,30.08,SSW,208,4.0,9.0,81,0.00,,,0.00,WUHU216DAVISVP2,2013-07-10 07:07:00,
2013-07-10 03:12:00,78.3,72.0,30.08,SW,231,5.0,9.0,81,0.00,,,0.00,WUHU216DAVISVP2,2013-07-10 07:12:00,
2013-07-10 03:17:00,78.2,71.5,30.08,SW,219,4.0,9.0,80,0.00,,,0.00,WUHU216DAVISVP2,2013-07-10 07:17:00,
2013-07-10 03:22:00,78.2,71.5,30.08,SSW,213,4.0,9.0,80,0.00,,,0.00,WUHU216DAVISVP2,2013-07-10 07:22:00,
2013-07-10 03:27:00,78.2,71.6,30.08,SW,229,5.0,8.0,80,0.00,,,0.00,WUHU216DAVISVP2,2013-07-10 07:27:00,
2013-07-10 03:32:00,78.3,71.7,30.08,WSW,245,2.0,8.0,80,0.00,,,0.00,WUHU216DAVISVP2,2013-07-10 07:32:00,
2013-07-10 03:37:00,78.2,72.0,30.07,SW,229,4.0,9.0,81,0.00,,,0.00,WUHU216DAVISVP2,2013-07-10 07:37:00,
2013-07-10 03:42:00,78.2,72.0,30.08,SW,226,5.0,9.0,81,0.00,,,0.00,WUHU216DAVISVP2,2013-07-10 07:42:00,
2013-07-10 03:47:00,78.2,72.0,30.08,SW,230,5.0,9.0,81,0.00,,,0.00,WUHU216DAVISVP2,2013-07-10 07:47:00,
2013-07-10 03:51:00,78.1,71.9,30.08,SW,233,4.0,9.0,81,0.00,,,0.00,WUHU216DAVISVP2,2013-07-10 07:51:00,
2013-07-10 03:57:00,78.1,71.9,30.08,West,266,6.0,9.0,81,0.00,,,0.00,WUHU216DAVISVP2,2013-07-10 07:57:00,
2013-07-10 04:02:00,78.2,72.0,30.07,West,261,4.0,9.0,81,0.00,,,0.00,WUHU216DAVISVP2,2013-07-10 08:02:00,
2013-07-10 04:07:00,78.2,72.0,30.08,SW,220,4.0,9.0,81,0.00,,,0.00,WUHU216DAVISVP2,2013-07-10 08:07:00,
2013-07-10 04:12:00,78.2,72.0,30.08,WSW,255,4.0,9.0,81,0.00,,,0.00,WUHU216DAVISVP2,2013-07-10 08:12:00,
2013-07-10 04:17:00,78.1,72.2,30.08,SW,229,4.0,8.0,82,0.00,,,0.00,WUHU216DAVISVP2,2013-07-10 08:17:00,
2013-07-10 04:22:00,78.1,72.2,30.08,SW,224,6.0,8.0,82,0.00,,,0.00,WUHU216DAVISVP2,2013-07-10 08:22:00,
2013-07-10 04:27:00,78.1,72.2,30.08,WSW,239,8.0,9.0,82,0.00,,,0.00,WUHU216DAVISVP2,2013-07-10 08:27:00,
2013-07-10 04:32:00,78.2,72.3,30.08,SW,236,7.0,9.0,82,0.00,,,0.00,WUHU216DAVISVP2,2013-07-10 08:32:00,
2013-07-10 04:37:00,78.2,72.3,30.08,SW,226,6.0,9.0,82,0.00,,,0.00,WUHU216DAVISVP2,2013-07-10 08:37:00,
2013-07-10 04:42:00,78.2,72.3,30.08,SW,227,3.0,9.0,82,0.00,,,0.00,WUHU216DAVISVP2,2013-07-10 08:42:00,
2013-07-10 04:47:00,78.2,72.7,30.08,WSW,245,4.0,9.0,83,0.00,,,0.00,WUHU216DAVISVP2,2013-07-10 08:47:00,
2013-07-10 04:52:00,78.1,72.6,30.08,SW,236,5.0,9.0,83,0.00,,,0.00,WUHU216DAVISVP2,2013-07-10 08:52:00,
2013-07-10 04:57:00,78.1,72.6,30.08,SW,216,5.0,9.0,83,0.00,,,0.00,WUHU216DAVISVP2,2013-07-10 08:57:00,
2013-07-10 05:02:00,78.1,72.6,30.08,WSW,241,3.0,8.0,83,0.00,,,0.00,WUHU216DAVISVP2,2013-07-10 09:02:00,
2013-07-10 05:07:00,78.0,72.5,30.08,WSW,240,6.0,8.0,83,0.00,,,0.00,WUHU216DAVISVP2,2013-07-10 09:07:00,
2013-07-10 05:12:00,78.0,72.5,30.08,WSW,249,3.0,8.0,83,0.00,,,0.00,WUHU216DAVISVP2,2013-07-10 09:12:00,
2013-07-10 05:16:00,78.0,72.8,30.08,SSW,212,3.0,8.0,84,0.00,,,0.00,WUHU216DAVISVP2,2013-07-10 09:16:00,
2013-07-10 05:22:00,78.1,72.9,30.08,SSW,201,6.0,10.0,84,0.00,,,0.00,WUHU216DAVISVP2,2013-07-10 09:22:00,
2013-07-10 05:27:00,78.1,72.9,30.08,SW,223,7.0,10.0,84,0.00,,,0.00,WUHU216DAVISVP2,2013-07-10 09:27:00,
2013-07-10 05:32:00,78.1,72.9,30.08,SW,233,6.0,10.0,84,0.00,,,0.00,WUHU216DAVISVP2,2013-07-10 09:32:00,
2013-07-10 05:36:00,78.1,72.9,30.08,WSW,238,5.0,10.0,84,0.00,,,0.00,WUHU216DAVISVP2,2013-07-10 09:36:00,
2013-07-10 05:41:00,78.2,73.0,30.08,SW,217,5.0,9.0,84,0.00,,,0.00,WUHU216DAVISVP2,2013-07-10 09:41:00,
2013-07-10 05:46:00,78.2,73.0,30.08,West,269,4.0,9.0,84,0.00,,,0.00,WUHU216DAVISVP2,2013-07-10 09:46:00,
2013-07-10 05:51:00,78.1,73.3,30.08,SW,214,3.0,9.0,85,0.00,,,0.00,WUHU216DAVISVP2,2013-07-10 09:51:00,
2013-07-10 05:57:00,78.1,73.3,30.08,SW,234,6.0,9.0,85,0.00,,,0.00,WUHU216DAVISVP2,2013-07-10 09:57:00,
2013-07-10 06:02:00,78.0,73.2,30.08,SW,224,4.0,9.0,85,0.00,,,0.00,WUHU216DAVISVP2,2013-07-10 10:02:00,
2013-07-10 06:07:00,78.0,73.2,30.08,West,269,4.0,9.0,85,0.00,,,0.00,WUHU216DAVISVP2,2013-07-10 10:07:00,
2013-07-10 06:11:00,78.0,73.2,30.08,SSW,205,4.0,9.0,85,0.00,,,0.00,WUHU216DAVISVP2,2013-07-10 10:11:00,
2013-07-10 06:16:00,78.0,73.2,30.08,WSW,257,7.0,10.0,85,0.00,,,0.00,WUHU216DAVISVP2,2013-07-10 10:16:00,
2013-07-10 06:21:00,78.2,73.4,30.08,West,270,5.0,10.0,85,0.00,,,0.00,WUHU216DAVISVP2,2013-07-10 10:21:00,
2013-07-10 06:26:00,78.4,73.2,30.08,SW,233,3.0,10.0,84,0.00,,,0.00,WUHU216DAVISVP2,2013-07-10 10:26:00,
2013-07-10 06:31:00,78.5,73.3,30.08,West,264,2.0,10.0,84,0.00,,,0.00,WUHU216DAVISVP2,2013-07-10 10:31:00,
2013-07-10 06:36:00,78.6,73.4,30.08,South,190,5.0,8.0,84,0.00,,,0.00,WUHU216DAVISVP2,2013-07-10 10:36:00,
2013-07-10 06:41:00,78.8,73.6,30.08,SW,215,3.0,8.0,84,0.00,,,0.00,WUHU216DAVISVP2,2013-07-10 10:41:00,
2013-07-10 06:46:00,78.9,73.4,30.08,SW,214,5.0,8.0,83,0.00,,,0.00,WUHU216DAVISVP2,2013-07-10 10:46:00,
2013-07-10 06:51:00,79.0,73.8,30.07,SSW,198,3.0,8.0,84,0.00,,,0.00,WUHU216DAVISVP2,2013-07-10 10:51:00,
2013-07-10 06:56:00,78.7,73.9,30.08,SSW,197,5.0,8.0,85,0.00,,,0.00,WUHU216DAVISVP2,2013-07-10 10:56:00,
2013-07-10 07:01:00,78.7,73.9,30.08,SSW,202,4.0,8.0,85,0.00,,,0.00,WUHU216DAVISVP2,2013-07-10 11:01:00,
2013-07-10 07:06:00,78.9,74.1,30.08,SSW,198,5.0,8.0,85,0.00,,,0.00,WUHU216DAVISVP2,2013-07-10 11:06:00,
2013-07-10 07:11:00,79.2,74.0,30.08,SW,232,5.0,8.0,84,0.00,,,0.00,WUHU216DAVISVP2,2013-07-10 11:11:00,
2013-07-10 07:17:00,79.4,74.2,30.08,SSW,211,5.0,8.0,84,0.00,,,0.00,WUHU216DAVISVP2,2013-07-10 11:17:00,
2013-07-10 07:22:00,79.7,74.2,30.08,SW,229,4.0,8.0,83,0.00,,,0.00,WUHU216DAVISVP2,2013-07-10 11:22:00,
2013-07-10 07:27:00,80.0,74.1,30.08,WSW,251,4.0,9.0,82,0.00,,,0.00,WUHU216DAVISVP2,2013-07-10 11:27:00,
2013-07-10 07:32:00,80.3,74.4,30.08,SW,227,5.0,11.0,82,0.00,,,0.00,WUHU216DAVISVP2,2013-07-10 11:32:00,
2013-07-10 07:37:00,80.6,74.7,30.08,SW,229,2.0,11.0,82,0.00,,,0.00,WUHU216DAVISVP2,2013-07-10 11:37:00,
2013-07-10 07:41:00,80.8,74.5,30.08,WSW,237,2.0,11.0,81,0.00,,,0.00,WUHU216DAVISVP2,2013-07-10 11:41:00,
2013-07-10 07:46:00,80.9,74.9,30.08,SSE,153,5.0,11.0,82,0.00,,,0.00,WUHU216DAVISVP2,2013-07-10 11:46:00,
2013-07-10 07:51:00,81.0,74.6,30.08,SSW,198,7.0,10.0,81,0.00,,,0.00,WUHU216DAVISVP2,2013-07-10 11:51:00,
2013-07-10 07:57:00,81.2,75.2,30.08,South,190,5.0,10.0,82,0.00,,,0.00,WUHU216DAVISVP2,2013-07-10 11:57:00,
2013-07-10 08:01:00,81.3,75.3,30.08,SW,230,7.0,8.0,82,0.00,,,0.00,WUHU216DAVISVP2,2013-07-10 12:01:00,
2013-07-10 08:06:00,81.4,75.4,30.08,SE,144,3.0,8.0,82,0.00,,,0.00,WUHU216DAVISVP2,2013-07-10 12:06:00,
2013-07-10 08:11:00,81.2,75.2,30.08,South,171,6.0,8.0,82,0.00,,,0.00,WUHU216DAVISVP2,2013-07-10 12:11:00,
2013-07-10 08:16:00,81.1,75.1,30.09,South,177,7.0,9.0,82,0.00,,,0.00,WUHU216DAVISVP2,2013-07-10 12:16:00,
2013-07-10 08:21:00,80.8,74.8,30.09,South,172,7.0,11.0,82,0.00,,,0.00,WUHU216DAVISVP2,2013-07-10 12:21:00,
2013-07-10 08:27:00,80.6,74.6,30.09,South,175,2.0,11.0,82,0.00,,,0.00,WUHU216DAVISVP2,2013-07-10 12:27:00,
2013-07-10 08:31:00,81.0,75.4,30.09,South,182,5.0,11.0,83,0.00,,,0.00,WUHU216DAVISVP2,2013-07-10 12:31:00,
2013-07-10 08:37:00,81.3,75.4,30.09,SSE,160,6.0,11.0,82,0.00,,,0.00,WUHU216DAVISVP2,2013-07-10 12:37:00,
2013-07-10 08:42:00,81.3,75.0,30.09,SSW,197,3.0,9.0,81,0.00,,,0.00,WUHU216DAVISVP2,2013-07-10 12:42:00,
2013-07-10 08:47:00,81.7,75.4,30.09,SSE,158,6.0,9.0,81,0.00,,,0.00,WUHU216DAVISVP2,2013-07-10 12:47:00,
2013-07-10 08:52:00,82.1,75.1,30.09,SSW,202,6.0,9.0,79,0.00,,,0.00,WUHU216DAVISVP2,2013-07-10 12:52:00,
2013-07-10 08:57:00,82.0,75.3,30.09,SSW,205,6.0,9.0,80,0.00,,,0.00,WUHU216DAVISVP2,2013-07-10 12:57:00,
2013-07-10 09:02:00,81.6,75.2,30.09,South,174,5.0,10.0,81,0.00,,,0.00,WUHU216DAVISVP2,2013-07-10 13:02:00,
2013-07-10 09:07:00,81.5,75.2,30.10,SSW,203,3.0,10.0,81,0.00,,,0.00,WUHU216DAVISVP2,2013-07-10 13:07:00,
2013-07-10 09:12:00,81.8,75.1,30.10,South,174,4.0,10.0,80,0.00,,,0.00,WUHU216DAVISVP2,2013-07-10 13:12:00,
2013-07-10 09:17:00,81.9,74.5,30.10,SSW,211,6.0,10.0,78,0.00,,,0.00,WUHU216DAVISVP2,2013-07-10 13:17:00,
2013-07-10 09:22:00,82.4,75.0,30.10,WSW,240,1.0,10.0,78,0.00,,,0.00,WUHU216DAVISVP2,2013-07-10 13:22:00,
2013-07-10 09:27:00,82.6,74.4,30.10,West,268,4.0,11.0,76,0.00,,,0.00,WUHU216DAVISVP2,2013-07-10 13:27:00,
2013-07-10 09:32:00,82.7,74.5,30.10,WSW,246,6.0,11.0,76,0.00,,,0.00,WUHU216DAVISVP2,2013-07-10 13:32:00,
2013-07-10 09:37:00,82.5,74.7,30.10,WSW,239,2.0,13.0,77,0.00,,,0.00,WUHU216DAVISVP2,2013-07-10 13:37:00,
2013-07-10 09:42:00,82.5,74.7,30.10,SSW,203,5.0,13.0,77,0.00,,,0.00,WUHU216DAVISVP2,2013-07-10 13:42:00,
2013-07-10 09:47:00,82.1,74.7,30.10,SSW,204,1.0,13.0,78,0.00,,,0.00,WUHU216DAVISVP2,2013-07-10 13:47:00,
2013-07-10 09:52:00,82.2,74.4,30.10,WNW,297,5.0,13.0,77,0.00,,,0.00,WUHU216DAVISVP2,2013-07-10 13:52:00,
2013-07-10 09:57:00,82.3,74.5,30.09,SSW,207,6.0,10.0,77,0.00,,,0.00,WUHU216DAVISVP2,2013-07-10 13:57:00,
2013-07-10 10:02:00,82.9,74.7,30.10,SSW,202,6.0,12.0,76,0.00,,,0.00,WUHU216DAVISVP2,2013-07-10 14:02:00,
2013-07-10 10:07:00,83.3,74.7,30.09,South,186,10.0,13.0,75,0.00,,,0.00,WUHU216DAVISVP2,2013-07-10 14:07:00,
2013-07-10 10:12:00,83.3,75.1,30.09,SSE,149,4.0,13.0,76,0.00,,,0.00,WUHU216DAVISVP2,2013-07-10 14:12:00,
2013-07-10 10:17:00,83.1,74.9,30.09,SW,236,5.0,13.0,76,0.00,,,0.00,WUHU216DAVISVP2,2013-07-10 14:17:00,
2013-07-10 10:22:00,82.6,74.8,30.10,SSW,195,9.0,13.0,77,0.00,,,0.00,WUHU216DAVISVP2,2013-07-10 14:22:00,
2013-07-10 10:27:00,82.1,75.1,30.10,SW,229,11.0,13.0,79,0.00,,,0.00,WUHU216DAVISVP2,2013-07-10 14:27:00,
2013-07-10 10:32:00,82.1,75.1,30.10,SSE,167,10.0,13.0,79,0.00,,,0.00,WUHU216DAVISVP2,2013-07-10 14:32:00,
2013-07-10 10:37:00,82.4,75.0,30.10,South,191,9.0,13.0,78,0.00,,,0.00,WUHU216DAVISVP2,2013-07-10 14:37:00,
2013-07-10 10:42:00,82.7,74.8,30.10,South,172,11.0,13.0,77,0.00,,,0.00,WUHU216DAVISVP2,2013-07-10 14:42:00,
2013-07-10 10:47:00,82.6,74.7,30.10,SE,143,13.0,13.0,77,0.00,,,0.00,WUHU216DAVISVP2,2013-07-10 14:47:00,
2013-07-10 10:52:00,82.8,74.5,30.10,South,179,11.0,14.0,76,0.00,,,0.00,WUHU216DAVISVP2,2013-07-10 14:52:00,
2013-07-10 10:57:00,83.1,74.5,30.10,South,175,11.0,14.0,75,0.00,,,0.00,WUHU216DAVISVP2,2013-07-10 14:57:00,
2013-07-10 11:02:00,83.3,74.7,30.09,SE,133,8.0,14.0,75,0.00,,,0.00,WUHU216DAVISVP2,2013-07-10 15:02:00,
2013-07-10 11:07:00,83.6,74.6,30.09,SSE,168,10.0,14.0,74,0.00,,,0.00,WUHU216DAVISVP2,2013-07-10 15:07:00,
2013-07-10 11:12:00,83.6,75.0,30.09,SSE,165,9.0,14.0,75,0.00,,,0.00,WUHU216DAVISVP2,2013-07-10 15:12:00,
2013-07-10 11:17:00,83.9,74.5,30.09,SSE,158,9.0,14.0,73,0.00,,,0.00,WUHU216DAVISVP2,2013-07-10 15:17:00,
2013-07-10 11:22:00,83.9,74.9,30.09,SSE,154,10.0,14.0,74,0.00,,,0.00,WUHU216DAVISVP2,2013-07-10 15:22:00,
2013-07-10 11:27:00,83.9,74.9,30.09,SSE,162,9.0,14.0,74,0.00,,,0.00,WUHU216DAVISVP2,2013-07-10 15:27:00,
2013-07-10 11:32:00,83.4,74.8,30.09,South,170,10.0,13.0,75,0.00,,,0.00,WUHU216DAVISVP2,2013-07-10 15:32:00,
2013-07-10 11:37:00,83.0,74.4,30.09,SSE,153,7.0,13.0,75,0.00,,,0.00,WUHU216DAVISVP2,2013-07-10 15:37:00,
2013-07-10 11:42:00,82.6,74.4,30.09,South,169,8.0,13.0,76,0.00,,,0.00,WUHU216DAVISVP2,2013-07-10 15:42:00,
2013-07-10 11:47:00,82.8,74.6,30.09,SE,136,8.0,13.0,76,0.00,,,0.00,WUHU216DAVISVP2,2013-07-10 15:47:00,
2013-07-10 11:52:00,83.2,75.0,30.09,South,174,8.0,13.0,76,0.00,,,0.00,WUHU216DAVISVP2,2013-07-10 15:52:00,
2013-07-10 11:57:00,83.7,75.1,30.09,South,177,8.0,13.0,75,0.00,,,0.00,WUHU216DAVISVP2,2013-07-10 15:57:00,
2013-07-10 12:02:00,83.8,75.0,30.09,SE,143,10.0,13.0,75,0.00,,,0.00,WUHU216DAVISVP2,2013-07-10 16:02:00,
2013-07-10 12:07:00,84.3,75.1,30.09,South,191,10.0,13.0,74,0.00,,,0.00,WUHU216DAVISVP2,2013-07-10 16:07:00,
2013-07-10 12:12:00,84.4,75.8,30.08,SSE,165,9.0,13.0,75,0.00,,,0.00,WUHU216DAVISVP2,2013-07-10 16:12:00,
2013-07-10 12:17:00,84.4,74.6,30.08,SSW,199,8.0,12.0,72,0.00,,,0.00,WUHU216DAVISVP2,2013-07-10 16:17:00,
2013-07-10 12:22:00,84.6,74.4,30.08,West,277,10.0,15.0,71,0.00,,,0.00,WUHU216DAVISVP2,2013-07-10 16:22:00,
2013-07-10 12:27:00,84.1,73.1,30.08,WSW,257,12.0,17.0,69,0.00,,,0.00,WUHU216DAVISVP2,2013-07-10 16:27:00,
2013-07-10 12:32:00,84.2,73.2,30.08,WSW,240,9.0,17.0,69,0.00,,,0.00,WUHU216DAVISVP2,2013-07-10 16:32:00,
2013-07-10 12:37:00,84.3,73.3,30.07,SW,231,6.0,17.0,69,0.00,,,0.00,WUHU216DAVISVP2,2013-07-10 16:37:00,
2013-07-10 12:42:00,85.3,73.1,30.07,West,269,12.0,17.0,67,0.00,,,0.00,WUHU216DAVISVP2,2013-07-10 16:42:00,
2013-07-10 12:47:00,85.0,72.2,30.07,WSW,245,16.0,17.0,65,0.00,,,0.00,WUHU216DAVISVP2,2013-07-10 16:47:00,
2013-07-10 12:52:00,85.2,72.8,30.07,SW,220,3.0,17.0,66,0.00,,,0.00,WUHU216DAVISVP2,2013-07-10 16:52:00,
2013-07-10 12:57:00,85.9,73.0,30.07,WSW,257,7.0,17.0,65,0.00,,,0.00,WUHU216DAVISVP2,2013-07-10 16:57:00,
2013-07-10 13:02:00,85.3,72.5,30.07,West,262,14.0,17.0,65,0.00,,,0.00,WUHU216DAVISVP2,2013-07-10 17:02:00,
2013-07-10 13:07:00,85.1,72.7,30.07,West,259,11.0,16.0,66,0.00,,,0.00,WUHU216DAVISVP2,2013-07-10 17:07:00,
2013-07-10 13:12:00,85.3,71.1,30.07,WSW,248,10.0,16.0,62,0.00,,,0.00,WUHU216DAVISVP2,2013-07-10 17:12:00,
2013-07-10 13:17:00,85.2,72.4,30.07,SW,229,14.0,16.0,65,0.00,,,0.00,WUHU216DAVISVP2,2013-07-10 17:17:00,
2013-07-10 13:22:00,85.2,72.8,30.07,WSW,246,8.0,16.0,66,0.00,,,0.00,WUHU216DAVISVP2,2013-07-10 17:22:00,
2013-07-10 13:27:00,85.7,72.6,30.07,SW,233,8.0,16.0,65,0.00,,,0.00,WUHU216DAVISVP2,2013-07-10 17:27:00,
2013-07-10 13:32:00,85.9,74.1,30.07,SE,137,7.0,17.0,68,0.00,,,0.00,WUHU216DAVISVP2,2013-07-10 17:32:00,
2013-07-10 13:37:00,86.3,74.8,30.07,South,185,8.0,17.0,68,0.00,,,0.00,WUHU216DAVISVP2,2013-07-10 17:37:00,
2013-07-10 13:42:00,85.4,74.3,30.07,SSW,192,8.0,17.0,69,0.00,,,0.00,WUHU216DAVISVP2,2013-07-10 17:42:00,
2013-07-10 13:47:00,84.9,75.1,30.06,South,171,10.0,15.0,72,0.00,,,0.00,WUHU216DAVISVP2,2013-07-10 17:47:00,
2013-07-10 13:52:00,84.5,74.3,30.06,SSE,163,3.0,15.0,71,0.00,,,0.00,WUHU216DAVISVP2,2013-07-10 17:52:00,
2013-07-10 13:57:00,84.1,74.3,30.06,SSE,158,12.0,15.0,72,0.00,,,0.00,WUHU216DAVISVP2,2013-07-10 17:57:00,
2013-07-10 14:02:00,84.3,74.5,30.06,South,188,12.0,14.0,72,0.00,,,0.00,WUHU216DAVISVP2,2013-07-10 18:02:00,
2013-07-10 14:07:00,84.2,74.4,30.06,South,171,6.0,14.0,72,0.00,,,0.00,WUHU216DAVISVP2,2013-07-10 18:07:00,
2013-07-10 14:12:00,84.2,74.6,30.06,SE,139,6.0,14.0,73,0.00,,,0.00,WUHU216DAVISVP2,2013-07-10 18:12:00,
2013-07-10 14:17:00,84.0,75.0,30.06,SSE,158,14.0,14.0,74,0.00,,,0.00,WUHU216DAVISVP2,2013-07-10 18:17:00,
2013-07-10 14:22:00,83.7,74.7,30.06,South,177,10.0,14.0,74,0.00,,,0.00,WUHU216DAVISVP2,2013-07-10 18:22:00,
2013-07-10 14:27:00,83.4,74.8,30.06,SE,143,8.0,14.0,75,0.00,,,0.00,WUHU216DAVISVP2,2013-07-10 18:27:00,
2013-07-10 14:32:00,83.4,75.2,30.05,SSE,150,8.0,14.0,76,0.00,,,0.00,WUHU216DAVISVP2,2013-07-10 18:32:00,
2013-07-10 14:37:00,83.2,75.0,30.05,SSE,158,8.0,14.0,76,0.00,,,0.00,WUHU216DAVISVP2,2013-07-10 18:37:00,
2013-07-10 14:42:00,83.0,74.8,30.05,South,172,9.0,14.0,76,0.00,,,0.00,WUHU216DAVISVP2,2013-07-10 18:42:00,
2013-07-10 14:47:00,82.9,75.1,30.05,SSE,165,11.0,16.0,77,0.00,,,0.00,WUHU216DAVISVP2,2013-07-10 18:47:00,
2013-07-10 14:52:00,83.2,75.4,30.05,SSW,193,11.0,16.0,77,0.00,,,0.00,WUHU216DAVISVP2,2013-07-10 18:52:00,
2013-07-10 14:57:00,83.2,75.0,30.05,SSW,209,8.0,16.0,76,0.00,,,0.00,WUHU216DAVISVP2,2013-07-10 18:57:00,
2013-07-10 15:02:00,83.6,75.4,30.05,SSE,158,12.0,16.0,76,0.00,,,0.00,WUHU216DAVISVP2,2013-07-10 19:02:00,
2013-07-10 15:07:00,83.7,74.9,30.04,South,181,9.0,15.0,75,0.00,,,0.00,WUHU216DAVISVP2,2013-07-10 19:07:00,
2013-07-10 15:12:00,83.6,75.0,30.04,SE,146,11.0,15.0,75,0.00,,,0.00,WUHU216DAVISVP2,2013-07-10 19:12:00,
2013-07-10 15:17:00,83.7,75.1,30.04,SSW,198,12.0,15.0,75,0.00,,,0.00,WUHU216DAVISVP2,2013-07-10 19:17:00,
2013-07-10 15:22:00,83.7,75.1,30.04,SSE,167,11.0,15.0,75,0.00,,,0.00,WUHU216DAVISVP2,2013-07-10 19:22:00,
2013-07-10 15:27:00,84.0,74.6,30.04,South,179,13.0,15.0,73,0.00,,,0.00,WUHU216DAVISVP2,2013-07-10 19:27:00,
2013-07-10 15:32:00,84.1,74.3,30.03,SSE,160,8.0,15.0,72,0.00,,,0.00,WUHU216DAVISVP2,2013-07-10 19:32:00,
2013-07-10 15:37:00,84.1,74.3,30.03,SSW,199,9.0,15.0,72,0.00,,,0.00,WUHU216DAVISVP2,2013-07-10 19:37:00,
2013-07-10 15:42:00,84.2,74.8,30.03,South,178,14.0,15.0,73,0.00,,,0.00,WUHU216DAVISVP2,2013-07-10 19:42:00,
2013-07-10 15:47:00,84.2,74.6,30.03,SSE,158,12.0,15.0,73,0.00,,,0.00,WUHU216DAVISVP2,2013-07-10 19:47:00,
2013-07-10 15:52:00,84.2,75.0,30.02,SSE,165,13.0,15.0,74,0.00,,,0.00,WUHU216DAVISVP2,2013-07-10 19:52:00,
2013-07-10 15:57:00,84.0,75.0,30.02,South,171,12.0,15.0,74,0.00,,,0.00,WUHU216DAVISVP2,2013-07-10 19:57:00,
2013-07-10 16:02:00,83.9,74.9,30.02,SE,134,10.0,15.0,74,0.00,,,0.00,WUHU216DAVISVP2,2013-07-10 20:02:00,
2013-07-10 16:07:00,83.9,74.9,30.02,South,169,12.0,15.0,74,0.00,,,0.00,WUHU216DAVISVP2,2013-07-10 20:07:00,
2013-07-10 16:12:00,83.8,75.2,30.02,SSE,165,10.0,16.0,75,0.00,,,0.00,WUHU216DAVISVP2,2013-07-10 20:12:00,
2013-07-10 16:17:00,84.1,75.5,30.02,SSW,197,11.0,16.0,75,0.00,,,0.00,WUHU216DAVISVP2,2013-07-10 20:17:00,
2013-07-10 16:22:00,84.4,75.4,30.02,South,174,7.0,16.0,74,0.00,,,0.00,WUHU216DAVISVP2,2013-07-10 20:22:00,
2013-07-10 16:27:00,84.2,75.4,30.01,South,186,9.0,16.0,75,0.00,,,0.00,WUHU216DAVISVP2,2013-07-10 20:27:00,
2013-07-10 16:32:00,83.9,75.7,30.02,South,186,11.0,16.0,76,0.00,,,0.00,WUHU216DAVISVP2,2013-07-10 20:32:00,
2013-07-10 16:37:00,83.8,75.6,30.02,SSE,160,10.0,15.0,76,0.00,,,0.00,WUHU216DAVISVP2,2013-07-10 20:37:00,
2013-07-10 16:42:00,83.3,75.5,30.01,South,181,6.0,14.0,77,0.00,,,0.00,WUHU216DAVISVP2,2013-07-10 20:42:00,
2013-07-10 16:47:00,83.4,76.0,30.01,SSE,153,12.0,14.0,78,0.00,,,0.00,WUHU216DAVISVP2,2013-07-10 20:47:00,
2013-07-10 16:52:00,83.3,76.2,30.01,South,176,10.0,14.0,79,0.00,,,0.00,WUHU216DAVISVP2,2013-07-10 20:52:00,
2013-07-10 16:57:00,83.3,75.7,30.01,SSE,152,4.0,13.0,78,0.00,,,0.00,WUHU216DAVISVP2,2013-07-10 20:57:00,
2013-07-10 17:02:00,83.1,75.9,30.01,South,191,8.0,16.0,79,0.00,,,0.00,WUHU216DAVISVP2,2013-07-10 21:02:00,
2013-07-10 17:07:00,82.9,75.3,30.00,SSW,210,10.0,16.0,78,0.00,,,0.00,WUHU216DAVISVP2,2013-07-10 21:07:00,
2013-07-10 17:12:00,82.8,75.2,30.00,SW,229,7.0,16.0,78,0.00,,,0.00,WUHU216DAVISVP2,2013-07-10 21:12:00,
2013-07-10 17:17:00,82.4,75.4,30.00,SW,221,10.0,16.0,79,0.00,,,0.00,WUHU216DAVISVP2,2013-07-10 21:17:00,
2013-07-10 17:22:00,82.1,75.1,30.00,SSE,166,8.0,17.0,79,0.00,,,0.00,WUHU216DAVISVP2,2013-07-10 21:22:00,
2013-07-10 17:27:00,82.2,75.2,30.00,SSE,162,13.0,17.0,79,0.00,,,0.00,WUHU216DAVISVP2,2013-07-10 21:27:00,
2013-07-10 17:32:00,82.5,75.1,30.00,WSW,248,7.0,17.0,78,0.00,,,0.00,WUHU216DAVISVP2,2013-07-10 21:32:00,
2013-07-10 17:37:00,82.7,74.9,30.00,ESE,119,13.0,17.0,77,0.00,,,0.00,WUHU216DAVISVP2,2013-07-10 21:37:00,
2013-07-10 17:42:00,82.7,74.5,30.00,SSW,207,12.0,18.0,76,0.00,,,0.00,WUHU216DAVISVP2,2013-07-10 21:42:00,
2013-07-10 17:47:00,82.2,74.4,30.00,SSW,211,9.0,18.0,77,0.00,,,0.00,WUHU216DAVISVP2,2013-07-10 21:47:00,
2013-07-10 17:52:00,82.4,74.6,30.00,South,184,12.0,18.0,77,0.00,,,0.00,WUHU216DAVISVP2,2013-07-10 21:52:00,
2013-07-10 17:57:00,82.0,74.2,30.00,SW,214,15.0,19.0,77,0.00,,,0.00,WUHU216DAVISVP2,2013-07-10 21:57:00,
2013-07-10 18:02:00,82.1,74.3,30.00,SSW,203,14.0,19.0,77,0.00,,,0.00,WUHU216DAVISVP2,2013-07-10 22:02:00,
2013-07-10 18:07:00,82.1,74.0,30.00,SSW,193,10.0,19.0,76,0.00,,,0.00,WUHU216DAVISVP2,2013-07-10 22:07:00,
2013-07-10 18:08:00,82.1,74.3,30.00,South,189,10.0,19.0,77,0.00,,,0.00,WUHU216DAVISVP2,2013-07-10 22:08:00,
2013-07-10 18:09:00,82.0,74.2,30.00,SW,214,17.0,19.0,77,0.00,,,0.00,WUHU216DAVISVP2,2013-07-10 22:09:00,
2013-07-10 18:11:00,81.9,74.5,30.00,SSW,203,12.0,19.0,78,0.00,,,0.00,WUHU216DAVISVP2,2013-07-10 22:11:00,
2013-07-10 18:12:00,81.9,74.5,30.00,SW,236,16.0,19.0,78,0.00,,,0.00,WUHU216DAVISVP2,2013-07-10 22:12:00,
2013-07-10 18:13:00,81.8,74.8,30.00,SSW,207,15.0,19.0,79,0.00,,,0.00,WUHU216DAVISVP2,2013-07-10 22:13:00,
2013-07-10 18:14:00,81.7,74.7,30.00,South,169,9.0,19.0,79,0.00,,,0.00,WUHU216DAVISVP2,2013-07-10 22:14:00,
2013-07-10 18:16:00,81.8,74.6,29.99,SSW,198,9.0,19.0,79,0.00,,,0.00,WUHU216DAVISVP2,2013-07-10 22:16:00,
2013-07-10 18:17:00,81.8,74.6,29.99,South,181,7.0,19.0,79,0.00,,,0.00,WUHU216DAVISVP2,2013-07-10 22:17:00,
2013-07-10 18:18:00,81.7,74.5,29.99,SSW,197,16.0,19.0,79,0.00,,,0.00,WUHU216DAVISVP2,2013-07-10 22:18:00,
2013-07-10 18:19:00,81.6,74.5,29.99,ESE,120,12.0,19.0,79,0.00,,,0.00,WUHU216DAVISVP2,2013-07-10 22:19:00,
2013-07-10 18:21:00,81.6,74.5,29.99,SSW,213,12.0,19.0,79,0.00,,,0.00,WUHU216DAVISVP2,2013-07-10 22:21:00,
2013-07-10 18:22:00,81.5,74.0,29.99,SW,222,10.0,20.0,78,0.00,,,0.00,WUHU216DAVISVP2,2013-07-10 22:22:00,
2013-07-10 18:23:00,81.5,74.4,29.99,SSE,162,14.0,20.0,79,0.00,,,0.00,WUHU216DAVISVP2,2013-07-10 22:23:00,
2013-07-10 18:24:00,81.6,74.1,29.99,South,176,11.0,20.0,78,0.00,,,0.00,WUHU216DAVISVP2,2013-07-10 22:24:00,
2013-07-10 18:26:00,81.6,74.1,29.99,SSW,199,13.0,20.0,78,0.00,,,0.00,WUHU216DAVISVP2,2013-07-10 22:26:00,
2013-07-10 18:27:00,81.6,74.2,29.99,South,170,8.0,20.0,78,0.00,,,0.00,WUHU216DAVISVP2,2013-07-10 22:27:00,
2013-07-10 18:28:00,81.6,74.2,29.99,SSW,195,16.0,20.0,78,0.00,,,0.00,WUHU216DAVISVP2,2013-07-10 22:28:00,
2013-07-10 18:29:00,81.7,74.7,29.99,SSW,200,16.0,20.0,79,0.00,,,0.00,WUHU216DAVISVP2,2013-07-10 22:29:00,
2013-07-10 18:31:00,81.7,74.7,29.99,SSW,203,15.0,20.0,79,0.00,,,0.00,WUHU216DAVISVP2,2013-07-10 22:31:00,
2013-07-10 18:32:00,81.6,74.9,30.00,South,184,11.0,20.0,80,0.00,,,0.00,WUHU216DAVISVP2,2013-07-10 22:32:00,
2013-07-10 18:33:00,81.6,74.9,30.00,SSW,192,13.0,20.0,80,0.00,,,0.00,WUHU216DAVISVP2,2013-07-10 22:33:00,
2013-07-10 18:34:00,81.4,74.8,30.00,SSW,205,11.0,20.0,80,0.00,,,0.00,WUHU216DAVISVP2,2013-07-10 22:34:00,
2013-07-10 18:36:00,81.4,75.1,29.99,SSE,166,11.0,20.0,81,0.00,,,0.00,WUHU216DAVISVP2,2013-07-10 22:36:00,
2013-07-10 18:37:00,81.2,74.9,29.99,SSE,152,17.0,20.0,81,0.00,,,0.00,WUHU216DAVISVP2,2013-07-10 22:37:00,
2013-07-10 18:38:00,81.1,74.8,29.99,SSW,209,8.0,20.0,81,0.00,,,0.00,WUHU216DAVISVP2,2013-07-10 22:38:00,
2013-07-10 18:39:00,81.1,74.8,29.99,SSW,213,9.0,20.0,81,0.00,,,0.00,WUHU216DAVISVP2,2013-07-10 22:39:00,
2013-07-10 18:41:00,81.0,74.7,29.99,SSE,157,16.0,20.0,81,0.00,,,0.00,WUHU216DAVISVP2,2013-07-10 22:41:00,
2013-07-10 18:42:00,80.9,74.6,29.99,South,188,11.0,19.0,81,0.00,,,0.00,WUHU216DAVISVP2,2013-07-10 22:42:00,
2013-07-10 18:43:00,80.9,75.0,29.99,SSE,163,12.0,19.0,82,0.00,,,0.00,WUHU216DAVISVP2,2013-07-10 22:43:00,
2013-07-10 18:44:00,80.8,74.9,29.99,SSW,207,11.0,19.0,82,0.00,,,0.00,WUHU216DAVISVP2,2013-07-10 22:44:00,
2013-07-10 18:46:00,80.8,74.9,29.99,SSE,162,10.0,19.0,82,0.00,,,0.00,WUHU216DAVISVP2,2013-07-10 22:46:00,
2013-07-10 18:47:00,80.8,74.5,29.99,SW,222,9.0,19.0,81,0.00,,,0.00,WUHU216DAVISVP2,2013-07-10 22:47:00,
2013-07-10 18:48:00,80.8,74.5,29.99,SW,220,12.0,19.0,81,0.00,,,0.00,WUHU216DAVISVP2,2013-07-10 22:48:00,
2013-07-10 18:49:00,80.8,74.5,29.99,SSW,194,9.0,19.0,81,0.00,,,0.00,WUHU216DAVISVP2,2013-07-10 22:49:00,
2013-07-10 18:59:00,80.7,74.4,29.99,SSW,209,7.0,17.0,81,0.00,,,0.00,WUHU216DAVISVP2,2013-07-10 22:59:00,
2013-07-10 19:04:00,81.0,74.7,29.99,SSE,148,8.0,17.0,81,0.00,,,0.00,WUHU216DAVISVP2,2013-07-10 23:04:00,
2013-07-10 19:09:00,81.0,75.1,29.99,South,179,9.0,16.0,82,0.00,,,0.00,WUHU216DAVISVP2,2013-07-10 23:09:00,
2013-07-10 19:14:00,80.9,75.0,29.99,SSE,165,12.0,16.0,82,0.00,,,0.00,WUHU216DAVISVP2,2013-07-10 23:14:00,
2013-07-10 19:19:00,80.8,74.5,29.99,SSW,207,9.0,16.0,81,0.00,,,0.00,WUHU216DAVISVP2,2013-07-10 23:19:00,
2013-07-10 19:24:00,80.8,74.2,29.98,South,169,9.0,16.0,80,0.00,,,0.00,WUHU216DAVISVP2,2013-07-10 23:24:00,
2013-07-10 19:29:00,81.1,74.5,29.99,SSW,204,7.0,16.0,80,0.00,,,0.00,WUHU216DAVISVP2,2013-07-10 23:29:00,
2013-07-10 19:34:00,80.9,74.6,29.98,SW,219,6.0,15.0,81,0.00,,,0.00,WUHU216DAVISVP2,2013-07-10 23:34:00,
2013-07-10 19:39:00,80.7,74.8,29.98,SSW,200,5.0,15.0,82,0.00,,,0.00,WUHU216DAVISVP2,2013-07-10 23:39:00,
2013-07-10 19:44:00,80.5,74.6,29.98,SSW,198,4.0,14.0,82,0.00,,,0.00,WUHU216DAVISVP2,2013-07-10 23:44:00,
2013-07-10 19:49:00,80.4,74.8,29.98,SSW,192,7.0,14.0,83,0.00,,,0.00,WUHU216DAVISVP2,2013-07-10 23:49:00,
2013-07-10 19:54:00,80.2,74.6,29.98,SSW,197,8.0,14.0,83,0.00,,,0.00,WUHU216DAVISVP2,2013-07-10 23:54:00,
2013-07-10 19:59:00,80.1,75.2,29.98,SSW,204,6.0,14.0,85,0.00,,,0.00,WUHU216DAVISVP2,2013-07-10 23:59:00,
2013-07-10 20:04:00,79.9,75.0,29.98,South,169,4.0,11.0,85,0.00,,,0.00,WUHU216DAVISVP2,2013-07-11 00:04:00,
2013-07-10 20:09:00,79.7,75.2,29.98,SSW,193,6.0,11.0,86,0.00,,,0.00,WUHU216DAVISVP2,2013-07-11 00:09:00,
2013-07-10 20:14:00,79.5,75.3,29.98,SSW,209,3.0,11.0,87,0.00,,,0.00,WUHU216DAVISVP2,2013-07-11 00:14:00,
2013-07-10 20:19:00,79.4,74.9,29.98,South,191,9.0,11.0,86,0.00,,,0.00,WUHU216DAVISVP2,2013-07-11 00:19:00,
2013-07-10 20:24:00,79.4,75.2,29.98,SSE,157,6.0,11.0,87,0.00,,,0.00,WUHU216DAVISVP2,2013-07-11 00:24:00,
2013-07-10 20:29:00,79.3,74.8,29.98,WSW,247,5.0,11.0,86,0.00,,,0.00,WUHU216DAVISVP2,2013-07-11 00:29:00,
2013-07-10 20:34:00,79.4,74.9,29.98,West,267,3.0,11.0,86,0.00,,,0.00,WUHU216DAVISVP2,2013-07-11 00:34:00,
2013-07-10 20:39:00,79.4,74.5,29.98,WSW,247,3.0,10.0,85,0.00,,,0.00,WUHU216DAVISVP2,2013-07-11 00:39:00,
2013-07-10 20:44:00,79.4,74.2,29.98,SSW,200,5.0,10.0,84,0.00,,,0.00,WUHU216DAVISVP2,2013-07-11 00:44:00,
2013-07-10 20:49:00,79.4,74.2,29.98,SW,236,7.0,10.0,84,0.00,,,0.00,WUHU216DAVISVP2,2013-07-11 00:49:00,
2013-07-10 20:54:00,79.4,74.5,29.98,SW,218,6.0,9.0,85,0.00,,,0.00,WUHU216DAVISVP2,2013-07-11 00:54:00,
2013-07-10 20:59:00,79.0,74.8,29.98,SSE,167,5.0,9.0,87,0.00,,,0.00,WUHU216DAVISVP2,2013-07-11 00:59:00,
2013-07-10 21:04:00,78.7,74.5,29.99,South,183,6.0,9.0,87,0.00,,,0.00,WUHU216DAVISVP2,2013-07-11 01:04:00,
2013-07-10 21:09:00,78.5,74.7,29.99,South,179,6.0,9.0,88,0.00,,,0.00,WUHU216DAVISVP2,2013-07-11 01:09:00,
2013-07-10 21:14:00,78.5,74.7,29.99,SSW,193,5.0,9.0,88,0.00,,,0.00,WUHU216DAVISVP2,2013-07-11 01:14:00,
2013-07-10 21:19:00,78.6,75.1,30.00,South,170,7.0,9.0,89,0.00,,,0.00,WUHU216DAVISVP2,2013-07-11 01:19:00,
2013-07-10 21:24:00,78.6,75.1,30.00,South,184,5.0,10.0,89,0.00,,,0.00,WUHU216DAVISVP2,2013-07-11 01:24:00,
2013-07-10 21:29:00,78.5,75.0,30.00,SSE,167,10.0,11.0,89,0.00,,,0.00,WUHU216DAVISVP2,2013-07-11 01:29:00,
2013-07-10 21:34:00,78.4,74.9,30.00,SSW,195,10.0,15.0,89,0.00,,,0.00,WUHU216DAVISVP2,2013-07-11 01:34:00,
2013-07-10 21:39:00,78.4,73.9,30.00,SSW,203,11.0,15.0,86,0.00,,,0.00,WUHU216DAVISVP2,2013-07-11 01:39:00,
2013-07-10 21:44:00,78.6,74.1,30.00,South,186,10.0,15.0,86,0.00,,,0.00,WUHU216DAVISVP2,2013-07-11 01:44:00,
2013-07-10 21:49:00,78.7,74.2,30.00,SSE,161,7.0,15.0,86,0.00,,,0.00,WUHU216DAVISVP2,2013-07-11 01:49:00,
2013-07-10 21:55:00,78.7,74.2,30.00,South,188,12.0,12.0,86,0.00,,,0.00,WUHU216DAVISVP2,2013-07-11 01:55:00,
2013-07-10 22:00:00,78.6,74.1,30.00,South,174,8.0,13.0,86,0.00,,,0.00,WUHU216DAVISVP2,2013-07-11 02:00:00,
2013-07-10 22:05:00,78.6,74.1,30.00,South,171,7.0,13.0,86,0.00,,,0.00,WUHU216DAVISVP2,2013-07-11 02:05:00,
2013-07-10 22:10:00,78.6,74.4,30.00,SSE,168,9.0,13.0,87,0.00,,,0.00,WUHU216DAVISVP2,2013-07-11 02:10:00,
2013-07-10 22:15:00,78.6,74.4,30.00,SSE,155,9.0,13.0,87,0.00,,,0.00,WUHU216DAVISVP2,2013-07-11 02:15:00,
2013-07-10 22:20:00,78.6,74.4,30.01,SSE,166,10.0,13.0,87,0.00,,,0.00,WUHU216DAVISVP2,2013-07-11 02:20:00,
2013-07-10 22:25:00,78.6,74.4,30.00,SSE,161,11.0,12.0,87,0.00,,,0.00,WUHU216DAVISVP2,2013-07-11 02:25:00,
2013-07-10 22:30:00,78.6,74.4,30.00,SE,145,6.0,11.0,87,0.00,,,0.00,WUHU216DAVISVP2,2013-07-11 02:30:00,
2013-07-10 22:35:00,78.5,74.7,30.01,SSW,194,5.0,11.0,88,0.00,,,0.00,WUHU216DAVISVP2,2013-07-11 02:35:00,
2013-07-10 22:40:00,78.5,74.3,30.01,South,188,5.0,11.0,87,0.00,,,0.00,WUHU216DAVISVP2,2013-07-11 02:40:00,
2013-07-10 22:45:00,78.4,74.2,30.00,South,174,11.0,13.0,87,0.00,,,0.00,WUHU216DAVISVP2,2013-07-11 02:45:00,
2013-07-10 22:50:00,78.5,74.3,30.00,SSE,153,8.0,13.0,87,0.00,,,0.00,WUHU216DAVISVP2,2013-07-11 02:50:00,
2013-07-10 22:55:00,78.6,74.7,30.01,SSE,156,12.0,20.0,88,0.00,,,0.00,WUHU216DAVISVP2,2013-07-11 02:55:00,
2013-07-10 23:00:00,78.4,74.9,30.00,SE,146,15.0,20.0,89,0.00,,,0.00,WUHU216DAVISVP2,2013-07-11 03:00:00,
2013-07-10 23:05:00,78.3,75.1,30.00,SSE,158,14.0,20.0,90,0.00,,,0.00,WUHU216DAVISVP2,2013-07-11 03:05:00,
2013-07-10 23:10:00,78.0,74.5,30.00,SSE,167,17.0,21.0,89,0.00,,,0.00,WUHU216DAVISVP2,2013-07-11 03:10:00,
2013-07-10 23:15:00,77.6,74.4,30.00,SE,140,6.0,21.0,90,0.01,,,0.01,WUHU216DAVISVP2,2013-07-11 03:15:00,
2013-07-10 23:20:00,77.4,74.6,30.00,SSW,195,6.0,21.0,91,0.01,,,0.01,WUHU216DAVISVP2,2013-07-11 03:20:00,
2013-07-10 23:25:00,77.4,74.9,30.00,West,280,6.0,21.0,92,0.01,,,0.01,WUHU216DAVISVP2,2013-07-11 03:25:00,
2013-07-10 23:30:00,77.4,74.6,29.99,SSE,167,9.0,17.0,91,0.01,,,0.01,WUHU216DAVISVP2,2013-07-11 03:30:00,
2013-07-10 23:35:00,77.6,74.8,29.99,SW,214,6.0,14.0,91,0.01,,,0.01,WUHU216DAVISVP2,2013-07-11 03:35:00,
2013-07-10 23:40:00,77.8,74.6,30.00,SSE,158,5.0,14.0,90,0.01,,,0.01,WUHU216DAVISVP2,2013-07-11 03:40:00,
2013-07-10 23:45:00,77.9,74.7,29.99,SSE,155,16.0,19.0,90,0.01,,,0.01,WUHU216DAVISVP2,2013-07-11 03:45:00,
2013-07-10 23:50:00,77.8,74.3,29.99,South,172,18.0,23.0,89,0.01,,,0.01,WUHU216DAVISVP2,2013-07-11 03:50:00,
2013-07-10 23:55:00,77.7,74.5,29.99,South,169,15.0,23.0,90,0.01,,,0.01,WUHU216DAVISVP2,2013-07-11 03:55:00,